STARLINK-11616, 63137

Orbit data source: Space-Track

STARLINK-11616, 63137 is a payload satellite owned by SpaceX/Seattle (US) in LEO that was launched on Mon, 03 Mar 2025 UTC via an FALCON 9 launch vehicle from the Air Force Eastern Test Range (AFETR). Payload-class satellites include a variety of spacecraft equipped with specific instruments for various scientific and technological missions. These include communications satellites like Starlink; space stations such as the ISS; scientific satellites like the Hubble; Earth observation satellites from companies like Planet Labs, Umbra, and HawkEye 360; GPS; miniature CubeSats for education and research; and military/defense satellites.

Loading next visibility...
Identifier
63137, 2025-043F
Orbit
LEO
Country
Flag of USUS
Related business
Manufacturer
SpaceX/Seattle
Mission
Operational Commercial Communications
Bus & Motor
STARLINK V2MD, Unknown motor
Mass
960 kg wet, ~910 kg dry
Launch date (UTC)
2025-03-03 (6 months ago)
Launch vehicle
FALCON 9
Launch site
Air Force Eastern Test Range (AFETR)
Object type
Payload
Rocket body
Debris
Shape & HBR
Box + 2 Pan, 14.5 m
Radar Cross Section
36.964 m², Large (>1 m²)

Expand to show TLE details & history
Last TLE update: 2 days ago

TLE from 2 days ago
0 STARLINK-11616
1 63137U 25043F   25257.36000385  .00173968  00000-0  13313-2 0  9997
2 63137  42.9993 233.2513 0001484 273.2577  86.8121 15.70835414 31746
Epoch: 2025-09-14T08:38Z
TLE epoch observation values (Epoch: 2025-09-14T08:38:24.332Z)
Latitude
-0.00001°
Longitude
110.06977°
Altitude
356.224 km
Speed
7.697 km/s
True Right ascension
15h 33m 00s
True Declination
0° 00' 00"
Sunlit
Object was in daylight at epoch
Visualization orbit readout
Latitude
Unknown
Longitude
Unknown
Altitude
Unknown
Speed
Unknown
Apparent Right ascension
Unknown
Apparent Declination
Unknown
Sunlit
N/A
Visualization observer readout
Local Sidereal Time
14:43:51
Azimuth
Unknown
Elevation
Unknown
Doppler factor
Unknown
Orbital elements
Apogee altitude
359.49 km
Perigee altitude
357.49 km
Semi-major axis
6,736.627 km
Eccentricity
0.00015
Inclination
42.9993°
RAAN
233.2513°
Arg. of periapsis
273.2577°
True anomaly
86.82908°
Mean anomaly
86.8121°
Eccentric anomaly
86.82059°
Mean motion
3.92536 °/min
Orbital period
91.71 mins
BSTAR
0.0013313
Loading maneuver chart data...
Computing Atmospheric mass density...
Loading historical data...
Loading historical data...
Loading historical data...
Loading historical data...
Loading historical data...
Loading historical data...
Loading historical data...

Documentation

Showing up to 5 results
|